Date String (YYYY-MM-DD hh:mm:ss) UTC,Instrument flags,absolute air pressure of the measurement (hPa),sample flow rate (lpm),inlet stack bypass flow (lpm),air temperature of the measurement (°C),ambient temperature measured by the external sensor (°C),aerosol sample conditioner tube jacket temperature (°C),OPC LED temperature (°C),internal box temperature (°C),relative humidity of the measurement (%),span deviation,mass concentration of particles derived from Lorenz-Mie calculation of OPC scattering (μg/m³),mass concentration of particles derived from Lorenz-Mie calculation of OPC scattering (μg/m³),mass concentration of particles derived from Lorenz-Mie calculation of OPC scattering (μg/m³)
DateTimeUTC,F1_M11,P_M11,Q1_M11,Q2_M11,T1_M11,T2_M11,T3_M11,T4_M11,T5_M11,U1_M11,ZSPAN_M11,X0_M11,X2_M11,X1_M11
2023-06-07 07:00:00,SystemResetWarning,0829.7,5.01,000.00,030.1,028.4,000.0,038.6,031.6,22.7,0000.0,0006.38,0003.51,0003.23
2023-06-07 07:01:00,SystemResetWarning,0829.7,5.00,000.00,030.1,028.4,000.0,038.6,031.6,22.7,0000.0,0007.53,0003.54,0003.25
2023-06-07 07:02:00,SystemResetWarning,0829.7,5.00,000.00,030.1,028.4,000.0,038.6,031.5,22.8,0000.0,0007.53,0003.55,0003.26
2023-06-07 07:03:00,SystemResetWarning,0829.7,5.00,000.00,030.1,028.4,000.0,038.6,031.5,22.9,0000.0,0007.54,0003.55,0003.27
2023-06-07 07:04:00,SystemResetWarning,0829.7,5.00,000.00,030.1,028.4,000.0,038.6,031.5,22.9,0000.0,0007.54,0003.55,0003.27
2023-06-07 07:05:00,SystemResetWarning,0829.7,4.99,000.00,030.1,028.4,000.0,038.6,031.5,23.0,0000.0,0007.30,0003.58,0003.27
2023-06-07 07:06:00,SystemResetWarning,0829.7,4.99,000.00,030.1,028.4,000.0,038.6,031.5,23.0,0000.0,0007.53,0003.62,0003.27
2023-06-07 07:07:00,SystemResetWarning,0829.6,5.00,000.00,030.1,028.4,000.0,038.6,031.5,23.1,0000.0,0007.52,0003.60,0003.26
2023-06-07 07:08:00,SystemResetWarning,0829.6,5.02,000.00,030.1,028.4,000.0,038.6,031.5,23.0,0000.0,0007.50,0003.60,0003.26
2023-06-07 07:09:00,SystemResetWarning,0829.6,5.00,000.00,030.1,028.4,000.0,038.6,031.6,23.0,0000.0,0007.62,0003.64,0003.28
2023-06-07 07:10:00,SystemResetWarning,0829.6,4.99,000.00,030.1,028.4,000.0,038.7,031.6,23.0,0000.0,0007.60,0003.65,0003.28
2023-06-07 07:11:00,SystemResetWarning,0829.6,4.99,000.00,030.1,028.4,000.0,038.6,031.5,23.1,0000.0,0007.53,0003.64,0003.28
2023-06-07 07:12:00,SystemResetWarning,0829.6,5.01,000.00,030.1,028.4,000.0,038.6,031.6,23.1,0000.0,0006.52,0003.63,0003.28
2023-06-07 07:13:00,SystemResetWarning,0829.5,5.01,000.00,030.1,028.4,000.0,038.7,031.5,23.1,0000.0,0006.61,0003.66,0003.29
2023-06-07 07:14:00,SystemResetWarning,0829.5,5.00,000.00,030.1,028.4,000.0,038.7,031.6,23.1,0000.0,0006.83,0003.68,0003.29
2023-06-07 07:15:00,SystemResetWarning,0829.5,5.00,000.00,030.1,028.4,000.0,038.7,031.6,23.1,0000.0,0007.65,0003.69,0003.29
2023-06-07 07:16:00,SystemResetWarning,0829.4,4.99,000.00,030.1,028.4,000.0,038.7,031.6,23.1,0000.0,0008.04,0003.71,0003.29
2023-06-07 07:17:00,SystemResetWarning,0829.4,5.00,000.00,030.1,028.4,000.0,038.7,031.6,23.1,0000.0,0007.78,0003.71,0003.30
2023-06-07 07:18:00,SystemResetWarning,0829.4,5.00,000.00,030.1,028.4,000.0,038.7,031.6,23.1,0000.0,0007.77,0003.73,0003.31
2023-06-07 07:19:00,SystemResetWarning,0829.3,5.00,000.00,030.1,028.4,000.0,038.7,031.6,23.2,0000.0,0007.79,0003.75,0003.33
2023-06-07 07:20:00,SystemResetWarning,0829.4,5.00,000.00,030.1,028.4,000.0,038.7,031.5,23.2,0000.0,0007.71,0003.74,0003.32
2023-06-07 07:21:00,SystemResetWarning,0829.3,5.00,000.00,030.1,028.4,000.0,038.7,031.6,23.2,0000.0,0008.02,0003.76,0003.33
2023-06-07 07:22:00,SystemResetWarning,0829.3,4.99,000.00,030.1,028.4,000.0,038.7,031.5,23.1,0000.0,0008.31,0003.77,0003.33
2023-06-07 07:23:00,SystemResetWarning,0829.3,4.99,000.00,030.1,028.4,000.0,038.7,031.6,23.1,0000.0,0008.25,0003.74,0003.32
2023-06-07 07:24:00,SystemResetWarning,0829.3,5.00,000.00,030.1,028.4,000.0,038.7,031.6,23.2,0000.0,0008.12,0003.72,0003.32
2023-06-07 07:25:00,SystemResetWarning,0829.4,5.00,000.00,030.1,028.4,000.0,038.7,031.6,23.2,0000.0,0008.14,0003.74,0003.32
2023-06-07 07:26:00,SystemResetWarning,0829.3,5.00,000.00,030.1,028.4,000.0,038.7,031.6,23.3,0000.0,0007.63,0003.74,0003.32
2023-06-07 07:27:00,SystemResetWarning,0829.4,5.00,000.00,030.1,028.4,000.0,038.7,031.6,23.4,0000.0,0007.20,0003.72,0003.33
2023-06-07 07:28:00,SystemResetWarning,0829.4,5.00,000.00,030.1,028.4,000.0,038.7,031.6,23.3,0000.0,0007.13,0003.72,0003.34
2023-06-07 07:29:00,SystemResetWarning,0829.4,4.99,000.00,030.1,028.4,000.0,038.7,031.5,23.4,0000.0,0007.11,0003.71,0003.34
2023-06-07 07:30:00,SystemResetWarning,0829.4,5.00,000.00,030.1,028.4,000.0,038.7,031.5,23.3,0000.0,0007.33,0003.71,0003.34
2023-06-07 07:31:00,SystemResetWarning,0829.4,5.01,000.00,030.1,028.4,000.0,038.7,031.5,23.2,0000.0,0007.35,0003.71,0003.35
2023-06-07 07:32:00,SystemResetWarning,0829.4,5.01,000.00,030.1,028.4,000.0,038.7,031.5,23.1,0000.0,0007.06,0003.69,0003.35
2023-06-07 07:33:00,SystemResetWarning,0829.3,5.01,000.00,030.1,028.4,000.0,038.7,031.5,23.1,0000.0,0006.33,0003.67,0003.35
2023-06-07 07:34:00,SystemResetWarning,0829.3,5.00,000.00,030.1,028.4,000.0,038.7,031.5,23.0,0000.0,0006.43,0003.69,0003.35
2023-06-07 07:35:00,SystemResetWarning,0829.3,4.99,000.00,030.1,028.4,000.0,038.7,031.5,23.0,0000.0,0006.44,0003.68,0003.35
2023-06-07 07:36:00,SystemResetWarning,0829.3,5.00,000.00,030.1,028.4,000.0,038.7,031.5,23.0,0000.0,0006.53,0003.67,0003.35
2023-06-07 07:37:00,SystemResetWarning,0829.3,5.00,000.00,030.1,028.4,000.0,038.7,031.6,23.0,0000.0,0006.42,0003.68,0003.36
2023-06-07 07:38:00,SystemResetWarning,0829.4,5.00,000.00,030.1,028.4,000.0,038.7,031.5,23.0,0000.0,0006.32,0003.66,0003.36
2023-06-07 07:39:00,SystemResetWarning,0829.3,5.00,000.00,030.1,028.4,000.0,038.7,031.5,22.9,0000.0,0006.78,0003.67,0003.36
2023-06-07 07:40:00,SystemResetWarning,0829.4,5.00,000.00,030.1,028.4,000.0,038.7,031.5,22.9,0000.0,0007.15,0003.71,0003.37
2023-06-07 07:41:00,SystemResetWarning,0829.4,5.00,000.00,030.1,028.4,000.0,038.7,031.5,22.9,0000.0,0007.19,0003.73,0003.36
2023-06-07 07:42:00,SystemResetWarning,0829.4,5.00,000.00,030.1,028.4,000.0,038.7,031.5,22.9,0000.0,0007.14,0003.75,0003.36
2023-06-07 07:43:00,SystemResetWarning,0829.3,5.01,000.00,030.1,028.4,000.0,038.7,031.5,23.0,0000.0,0007.22,0003.76,0003.36
2023-06-07 07:44:00,SystemResetWarning,0829.4,5.00,000.00,030.1,028.4,000.0,038.7,031.5,23.0,0000.0,0007.08,0003.76,0003.37
2023-06-07 07:45:00,SystemResetWarning,0829.4,5.00,000.00,030.1,028.4,000.0,038.7,031.5,23.1,0000.0,0007.64,0003.76,0003.38
2023-06-07 07:46:00,SystemResetWarning,0829.3,5.00,000.00,030.1,028.4,000.0,038.7,031.5,23.1,0000.0,0008.06,0003.80,0003.40
2023-06-07 07:47:00,SystemResetWarning,0829.4,4.99,000.00,030.1,028.4,000.0,038.7,031.5,23.3,0000.0,0008.01,0003.83,0003.41
2023-06-07 07:48:00,SystemResetWarning,0829.4,5.00,000.00,030.1,028.4,000.0,038.7,031.5,23.1,0000.0,0007.97,0003.83,0003.41
2023-06-07 07:49:00,SystemResetWarning,0829.4,5.00,000.00,030.1,028.4,000.0,038.7,031.5,23.1,0000.0,0008.04,0003.85,0003.41
2023-06-07 07:50:00,SystemResetWarning,0829.4,5.01,000.00,030.1,028.4,000.0,038.7,031.5,23.1,0000.0,0007.90,0003.84,0003.42
2023-06-07 07:51:00,SystemResetWarning,0829.4,5.02,000.00,030.1,028.4,000.0,038.7,031.5,23.1,0000.0,0007.62,0003.79,0003.42
2023-06-07 07:52:00,SystemResetWarning,0829.3,5.00,000.00,030.1,028.4,000.0,038.7,031.6,23.0,0000.0,0007.70,0003.77,0003.43
2023-06-07 07:53:00,SystemResetWarning,0829.3,4.98,000.00,030.1,028.4,000.0,038.7,031.6,23.0,0000.0,0007.65,0003.75,0003.43
2023-06-07 07:54:00,SystemResetWarning,0829.3,5.00,000.00,030.1,028.4,000.0,038.7,031.5,23.0,0000.0,0007.61,0003.72,0003.42
2023-06-07 07:55:00,SystemResetWarning,0829.4,5.01,000.00,030.1,028.4,000.0,038.7,031.5,23.0,0000.0,0007.60,0003.72,0003.42
2023-06-07 07:56:00,SystemResetWarning,0829.4,5.01,000.00,030.1,028.4,000.0,038.6,031.5,23.0,0000.0,0007.72,0003.71,0003.40
2023-06-07 07:57:00,SystemResetWarning,0829.3,5.01,000.00,030.1,028.4,000.0,038.7,031.5,22.9,0000.0,0007.27,0003.69,0003.40
2023-06-07 07:58:00,SystemResetWarning,0829.3,4.99,000.00,030.1,028.4,000.0,038.7,031.5,23.0,0000.0,0007.12,0003.65,0003.39
2023-06-07 07:59:00,SystemResetWarning,0829.4,5.00,000.00,030.1,028.4,000.0,038.7,031.5,22.9,0000.0,0007.05,0003.63,0003.39
